Tiempo atmosférico en la estación meteorológica de Ainsa, Huesca (610 m.)

Fecha
DESCASC
Temp. máxima en grados centígrados (hora)
DESCASC
Temp. mínima en grados centígrados (hora)
DESCASC
Temp. media en grados centígrados
DESCASC
Racha de viento máxima en m/sg (hora)
DESCASC
Velocidad máxima media en intervalos de 10 minutos(hora)
DESCASC
Precipitaciones diarias en mm
DESCASC
Precipitaciones de 00:00 a 06:00 en mm
DESCASC
Precipitaciones de 06:00 a 12:00 en mm
DESCASC
Precipitaciones de 12:00 a 18:00 en mm
DESCASC
Precipitaciones de 18:00 a 24:00 en mm
DESCASC
19-10-2017 14.9 (17:20) 10.2 (01:10) 12.5 5 (18:20) 3.61 (18:00) 27.6 15.2 12.4 0 0
18-10-2017 16.5 (00:00) 10.3 (19:10) 13.4 13.61 (17:20) 7.5 (16:40) 77.3 0.8 16.4 51.1 9
17-10-2017 24.3 (16:20) 8.6 (08:10) 16.4 5.56 (18:20) 3.61 (21:30) 0 0 0 0 0
16-10-2017 25.6 (15:10) 10.9 (08:30) 18.3 6.67 (17:10) 5.56 (17:40) 0 0 0 0 0
15-10-2017 25.4 (16:20) 13 (00:00) 19.2 6.11 (17:50) 4.72 (17:50) 0 0 0 0 0
14-10-2017 27 (14:40) 11.3 (00:00) 19.2 7.5 (17:00) 5.83 (16:30) 0 0 0 0 0
13-10-2017 28.7 (16:00) 9.5 (00:00) 19.1 8.33 (16:40) 6.39 (16:50) 0 0 0 0 0
12-10-2017 26.8 (16:10) 9.4 (00:00) 18.1 7.78 (18:00) 6.11 (18:00) 0 0 0 0 0
11-10-2017 25.8 (16:00) 8.3 (00:00) 17 7.22 (18:30) 5.83 (18:40) 0 0 0 0 0
10-10-2017 25 (15:30) 7.7 (00:00) 16.3 6.67 (18:20) 5.28 (18:30) 0 0 0 0 0
09-10-2017 24.7 (16:30) 7.4 (00:00) 16.1 9.17 (17:10) 6.39 (15:40) 0 0 0 0 0
08-10-2017 24.3 (16:00) 6.8 (00:00) 15.5 7.5 (18:00) 6.11 (18:00) 0 0 0 0 0
07-10-2017 23.3 (15:00) 6.2 (00:00) 14.7 8.33 (18:10) 6.39 (18:00) 0 0 0 0 0
06-10-2017 26.8 (17:40) 10 (00:00) 18.4 13.61 (18:40) 8.06 (21:50) 0 0 0 0 0
05-10-2017 28.1 (16:40) 11.3 (00:00) 19.7 7.78 (17:50) 6.39 (17:50) 0 0 0 0 0
04-10-2017 26.9 (14:40) 12.1 (00:00) 19.5 6.39 (16:20) 5.28 (16:10) 0 0 0 0 0
03-10-2017 24.8 (15:30) 12.1 (00:00) 18.4 7.22 (17:30) 5.28 (17:30) 0 0 0 0 0
02-10-2017 26.5 (15:30) 12.6 (00:00) 19.6 7.78 (17:30) 5.83 (17:30) 0 0 0 0 0
01-10-2017 20.3 (17:00) 14.4 (00:00) 17.3 4.72 (18:40) 3.33 (18:20) 0 0 0 0 0
30-09-2017 19.7 (16:00) 13.7 (00:00) 16.7 7.22 (11:00) 4.44 (11:00) 2.4 0 1.8 0.6 0
29-09-2017 26.1 (15:00) 11.5 (00:00) 18.8 7.78 (16:50) 6.11 (16:50) 0 0 0 0 0
28-09-2017 26.3 (15:50) 11.3 (00:00) 18.8 6.67 (18:30) 5.28 (17:50) 0 0 0 0 0
27-09-2017 25 (16:10) 10.7 (00:00) 17.8 6.11 (17:30) 4.44 (17:50) 0 0 0 0 0
26-09-2017 24 (15:50) 12.3 (00:00) 18.2 9.44 (17:10) 6.94 (16:10) 0 0 0 0 0
25-09-2017 27.9 (16:20) 14.1 (00:00) 21 10.83 (17:00) 7.78 (17:00) 0 0 0 0 0
24-09-2017 27.3 (16:00) 10.7 (00:00) 19 8.61 (17:30) 6.67 (17:30) 0 0 0 0 0
23-09-2017 24.7 (15:40) 9.4 (00:00) 17.1 6.39 (17:30) 5 (18:10) 0 0 0 0 0
22-09-2017 19.7 (18:40) 12.1 (00:00) 15.9 8.61 (13:10) 6.11 (13:10) 7.4 0 0 7.4 0
21-09-2017 26.6 (15:40) 7.6 (00:00) 17.1 8.33 (16:50) 6.39 (16:50) 0 0 0 0 0
20-09-2017 23.8 (16:10) 6.5 (00:00) 15.1 7.78 (14:20) 5.28 (14:30) 0 0 0 0 0

Gráficas

Temp. máximas Temp. mínimas Temp. medias Precipitaciones Rachas de viento máximas Velocidades máximas media en intervalos de 10 minutos

Datos horarios

Fecha y hora oficial Temperatura (ºC) Velocidad del viento (km/h) Dirección del viento Racha (km/h) Dirección de racha Precipitación (mm) Presión (hPa) Tendencia (hPa) Humedad (%)
2017-10-19 23:00:00 11.1 6 Norte 12 Norte 0 -- -- 98
2017-10-19 22:00:00 11.8 4 Nordeste 10 Noroeste 0 -- -- 96
2017-10-19 21:00:00 12.6 5 Norte 8 Norte 0 -- -- 95
2017-10-19 20:00:00 13.6 0 Calma 4 Noroeste 0 -- -- 90
2017-10-19 19:00:00 14.2 0 Calma 18 Sudeste 0 -- -- 86
2017-10-19 18:00:00 14.4 13 Sudeste 17 Sudeste 0 -- -- 85
2017-10-19 17:00:00 14.3 6 Sudeste 13 Sudeste 0 -- -- 85
2017-10-19 16:00:00 14.4 6 Sudeste 10 Sudeste 0 -- -- 85
2017-10-19 15:00:00 14 6 Sudoeste 13 Sur 0 -- -- 84
2017-10-19 14:00:00 14.2 7 Oeste 13 Oeste 0 -- -- 98
2017-10-19 13:00:00 12.5 4 Oeste 10 Oeste 0 -- -- 100
2017-10-19 12:00:00 11.8 7 Oeste 9 Oeste 2.4 -- -- 100
2017-10-19 11:00:00 11.4 3 Noroeste 10 Norte 2.8 -- -- 100
2017-10-19 10:00:00 11.4 3 Nordeste 10 Noroeste 1.8 -- -- 100
2017-10-19 09:00:00 11.3 8 Noroeste 11 Oeste 0 -- -- 100
2017-10-19 08:00:00 11.2 2 Nordeste 10 Norte 0.2 -- -- 100
2017-10-19 07:00:00 11.1 4 Nordeste 9 Norte 5.2 -- -- 100
2017-10-19 06:00:00 11 3 Norte 8 Norte 5 -- -- 100
2017-10-19 05:00:00 11 3 Noroeste 11 Norte 2.4 -- -- 100
2017-10-19 04:00:00 10.7 8 Norte 10 Norte 2.2 -- -- 100
2017-10-19 03:00:00 10.8 4 Norte 13 Oeste 3.8 -- -- 100
2017-10-19 02:00:00 10.5 11 Oeste 15 Sudoeste 1.2 -- -- 100
2017-10-19 01:00:00 10.4 9 Norte 12 Norte 0.6 -- -- 100
2017-10-19 00:00:00 10.8 3 Oeste 5 Oeste 0 -- -- 100
2017-10-18 23:00:00 10.5 6 Norte 13 Oeste 0 -- -- 99
2017-10-18 22:00:00 10.7 7 Noroeste 10 Noroeste 0.2 -- -- 100
2017-10-18 21:00:00 10.7 6 Noroeste 9 Noroeste 0.8 -- -- 100
2017-10-18 20:00:00 10.6 5 Oeste 25 Norte 2 -- -- 100
2017-10-18 19:00:00 10.5 6 Norte 22 Norte 6 -- -- 100
2017-10-18 18:00:00 10.6 2 Este 49 Norte 4.8 -- -- 99
2017-10-18 17:00:00 10.5 14 Norte 42 Sudoeste 12 -- -- 100
2017-10-18 16:00:00 10.6 8 Oeste 17 Norte 9 -- -- 100
2017-10-18 15:00:00 10.9 10 Nordeste 42 Sudoeste -- -- -- 99
2017-10-18 14:00:00 13.3 7 Norte 26 Oeste 6.6 -- -- 98
2017-10-18 13:00:00 13.8 10 Oeste 26 Sudoeste 2 -- -- 97
2017-10-18 12:00:00 13.4 3 Nordeste 18 Oeste 5.6 -- -- 99
2017-10-18 11:00:00 13.4 7 Oeste 11 Oeste 2.4 -- -- 98
2017-10-18 10:00:00 13.4 3 Norte 10 Noroeste 3.4 -- -- 99
2017-10-18 09:00:00 13.3 3 Norte 9 Norte 0.8 -- -- 98
2017-10-18 08:00:00 13.3 4 Nordeste 12 Oeste 2.6 -- -- 98
2017-10-18 07:00:00 13.4 8 Noroeste 11 Norte 1.6 -- -- 97
2017-10-18 06:00:00 13.6 5 Noroeste 11 Norte 0 -- -- 95
2017-10-18 05:00:00 13.8 4 Noroeste 12 Oeste 0 -- -- 95
2017-10-18 04:00:00 13.9 7 Noroeste 14 Oeste 0 -- -- 94
2017-10-18 03:00:00 14.1 10 Oeste 23 Oeste 0.6 -- -- 93
2017-10-18 02:00:00 14.6 7 Norte 23 Sur 0.2 -- -- 88
2017-10-18 01:00:00 15.6 5 Sudeste 8 Sur 0 -- -- 78
2017-10-18 00:00:00 16.5 2 Sudoeste 7 Este 0 -- -- 71
2017-10-17 23:00:00 17 4 Sudeste 6 Este 0 -- -- 69
2017-10-17 22:00:00 17.8 4 Sudeste 17 Sur 0 -- -- 65
2017-10-17 21:00:00 18.2 3 Este 9 Oeste 0 -- -- 55
2017-10-17 20:00:00 19.5 5 Sudeste 10 Sur 0 -- -- 53
2017-10-17 19:00:00 20.9 9 Sur 20 Sur 0 -- -- 46
2017-10-17 18:00:00 23.6 9 Sur 17 Sur 0 -- -- 37
2017-10-17 17:00:00 24 10 Sudeste 16 Sudeste 0 -- -- 37
2017-10-17 16:00:00 24 8 Sudeste 16 Sur 0 -- -- 39
2017-10-17 15:00:00 22.9 10 Sudeste 18 Sur 0 -- -- 44
2017-10-17 14:00:00 22 8 Sudeste 17 Sudeste 0 -- -- 51
2017-10-17 13:00:00 20.4 10 Sudeste 14 Sudeste 0 -- -- 56
2017-10-17 12:00:00 17.4 5 Este 10 Nordeste 0 -- -- 65
2017-10-17 11:00:00 14 3 Nordeste 10 Sudeste 0 -- -- 75
2017-10-17 10:00:00 11.3 4 Este 8 Este 0 -- -- 84
2017-10-17 09:00:00 9.2 5 Norte 10 Norte 0 -- -- 92
2017-10-17 08:00:00 8.8 5 Noroeste 8 Noroeste 0 -- -- 92
2017-10-17 07:00:00 9.9 3 Noroeste 8 Oeste 0 -- -- 90
2017-10-17 06:00:00 10.1 4 Noroeste 12 Noroeste 0 -- -- 88
2017-10-17 05:00:00 10.6 8 Noroeste 11 Noroeste 0 -- -- 86
2017-10-17 04:00:00 10.9 8 Noroeste 11 Oeste 0 -- -- 85
2017-10-17 03:00:00 11.7 8 Oeste 11 Oeste 0 -- -- 82
2017-10-17 02:00:00 12.6 3 Noroeste 5 Norte 0 -- -- 80
2017-10-17 01:00:00 13.6 7 Norte 10 Noroeste 0 -- -- 77
2017-10-17 00:00:00 14.4 4 Oeste 13 Norte 0 -- -- 71
2017-10-16 23:00:00 15 8 Oeste 12 Noroeste 0 -- -- 69
2017-10-16 22:00:00 16.5 9 Oeste 13 Oeste 0 -- -- 64
2017-10-16 21:00:00 17.9 7 Noroeste 10 Sudeste 0 -- -- 60
2017-10-16 20:00:00 20.4 9 Sudeste 12 Sudeste 0 -- -- 58
2017-10-16 19:00:00 22.7 8 Sur 22 Sudeste 0 -- -- 47
2017-10-16 18:00:00 23.7 18 Sudeste 24 Sudeste 0 -- -- 48
2017-10-16 17:00:00 25 15 Sudeste 22 Sudeste 0 -- -- 43
2017-10-16 16:00:00 25.5 17 Sudeste 21 Sudeste 0 -- -- 39
2017-10-16 15:00:00 25.5 10 Sudeste 16 Sudeste 0 -- -- 44
2017-10-16 14:00:00 24.2 9 Sudeste 13 Sudeste 0 -- -- 50
2017-10-16 13:00:00 22 5 Este 11 Este 0 -- -- 58
2017-10-16 12:00:00 20.3 5 Sudeste 9 Sur 0 -- -- 64
2017-10-16 11:00:00 16.6 5 Este 10 Este 0 -- -- 74
2017-10-16 10:00:00 13.5 3 Noroeste 7 Noroeste 0 -- -- 84
2017-10-16 09:00:00 11.5 5 Noroeste 12 Noroeste 0 -- -- 95
2017-10-16 08:00:00 11.1 10 Noroeste 12 Noroeste 0 -- -- 95
2017-10-16 07:00:00 12.1 5 Noroeste 9 Norte 0 -- -- 94
2017-10-16 06:00:00 12.5 7 Noroeste 8 Noroeste 0 -- -- 94
2017-10-16 05:00:00 13.3 8 Norte 12 Norte 0 -- -- 87
2017-10-16 04:00:00 14.4 8 Norte 14 Norte 0 -- -- 83
2017-10-16 03:00:00 15 12 Norte 15 Norte 0 -- -- 82
2017-10-16 02:00:00 15.8 3 Norte 9 Noroeste 0 -- -- 80
2017-10-16 01:00:00 15.7 5 Noroeste 8 Norte 0 -- -- 82
2017-10-16 00:00:00 15.8 6 Norte 10 Oeste 0 -- -- 82
2017-10-15 23:00:00 16.6 9 Noroeste 14 Noroeste 0 -- -- 78
2017-10-15 22:00:00 17.2 6 Noroeste 10 Noroeste 0 -- -- 77
2017-10-15 21:00:00 19.4 5 Norte 9 Sur 0 -- -- 70
2017-10-15 20:00:00 20.7 6 Sudeste 16 Sudeste 0 -- -- 67
2017-10-15 19:00:00 22.1 13 Sudeste 22 Sudeste 0 -- -- 62
2017-10-15 18:00:00 23.8 15 Sudeste 22 Sudeste 0 -- -- 54
2017-10-15 17:00:00 24.8 14 Sudeste 18 Sudeste 0 -- -- 49
2017-10-15 16:00:00 25.2 13 Sudeste 19 Sudeste 0 -- -- 48
2017-10-15 15:00:00 24.7 7 Sudeste 15 Sudeste 0 -- -- 48
2017-10-15 14:00:00 23.8 8 Sudeste 15 Sudeste 0 -- -- 52
2017-10-15 13:00:00 22.8 9 Sudeste 14 Sudeste 0 -- -- 57
2017-10-15 12:00:00 21.3 6 Sudeste 15 Sur 0 -- -- 62
2017-10-15 11:00:00 18.3 3 Oeste 14 Noroeste 0 -- -- 71
2017-10-15 10:00:00 15 5 Norte 14 Norte 0 -- -- 78
2017-10-15 09:00:00 13.8 10 Noroeste 20 Norte 0 -- -- 86
2017-10-15 08:00:00 13.6 6 Noroeste 15 Noroeste 0 -- -- 84
2017-10-15 07:00:00 13.7 10 Noroeste 17 Noroeste 0 -- -- 87
2017-10-15 06:00:00 13.3 5 Noroeste 12 Norte 0 -- -- 91
2017-10-15 05:00:00 13.3 5 Noroeste 10 Noroeste 0 -- -- 91
2017-10-15 04:00:00 13.2 6 Noroeste 9 Noroeste 0 -- -- 91
2017-10-15 03:00:00 14.1 6 Noroeste 11 Norte 0 -- -- 89
2017-10-15 02:00:00 14.6 5 Noroeste 9 Noroeste 0 -- -- 87
2017-10-15 01:00:00 15.2 3 Noroeste 5 Oeste 0 -- -- 86
2017-10-15 00:00:00 15.9 2 Noroeste 8 Norte 0 -- -- 82
2017-10-14 23:00:00 16.8 3 Norte 11 Noroeste 0 -- -- 79
2017-10-14 22:00:00 17.7 9 Noroeste 12 Oeste 0 -- -- 76
2017-10-14 21:00:00 19.9 4 Norte 8 Norte 0 -- -- 69
2017-10-14 20:00:00 21.1 5 Sur 15 Sur 0 -- -- 65
2017-10-14 19:00:00 23 11 Sudoeste 21 Sudeste 0 -- -- 59
2017-10-14 18:00:00 24.8 12 Sur 26 Sudeste 0 -- -- 52
2017-10-14 17:00:00 25.7 19 Sudeste 27 Sudeste 0 -- -- 47
2017-10-14 16:00:00 26.4 19 Sudeste 24 Sudeste 0 -- -- 42
2017-10-14 15:00:00 26.9 13 Sudeste 19 Sudeste 0 -- -- 36
2017-10-14 14:00:00 25.9 10 Sudeste 17 Sudeste 0 -- -- 37
2017-10-14 13:00:00 23.4 12 Sudeste 17 Sudeste 0 -- -- 41
2017-10-14 12:00:00 20 10 Sudeste 13 Sudeste 0 -- -- 46
2017-10-14 11:00:00 17.1 5 Sur 9 Sur 0 -- -- 55
2017-10-14 10:00:00 13.7 3 Oeste 9 Noroeste 0 -- -- 67
2017-10-14 09:00:00 11.8 9 Norte 14 Noroeste 0 -- -- 69
2017-10-14 08:00:00 11.3 11 Norte 14 Norte 0 -- -- 71
2017-10-14 07:00:00 11.4 6 Noroeste 11 Noroeste 0 -- -- 72
2017-10-14 06:00:00 12.4 4 Oeste 16 Norte 0 -- -- 71
2017-10-14 05:00:00 12.5 10 Noroeste 17 Noroeste 0 -- -- 71
2017-10-14 04:00:00 13.2 8 Noroeste 13 Noroeste 0 -- -- 69
2017-10-14 03:00:00 13.9 7 Noroeste 11 Norte 0 -- -- 70
2017-10-14 02:00:00 14.6 8 Noroeste 13 Norte 0 -- -- 66
2017-10-14 01:00:00 15.1 7 Noroeste 13 Noroeste 0 -- -- 65
2017-10-14 00:00:00 16 6 Noroeste 13 Noroeste 0 -- -- 64
2017-10-13 23:00:00 16.8 8 Noroeste 17 Noroeste 0 -- -- 63
2017-10-13 22:00:00 18.2 10 Noroeste 15 Oeste 0 -- -- 63
2017-10-13 21:00:00 20.6 7 Norte 16 Norte 0 -- -- 58
2017-10-13 20:00:00 22.2 9 Norte 25 Sudeste 0 -- -- 55
2017-10-13 19:00:00 23.6 22 Sudeste 27 Sudeste 0 -- -- 50
2017-10-13 18:00:00 25.6 21 Sudeste 28 Sudeste 0 -- -- 43
2017-10-13 17:00:00 26.8 22 Sudeste 30 Sudeste 0 -- -- 40
2017-10-13 16:00:00 28.7 17 Sudeste 24 Sudeste 0 -- -- 33
2017-10-13 15:00:00 28.3 14 Sudeste 21 Sudeste 0 -- -- 28
2017-10-13 14:00:00 26.8 11 Sudeste 15 Sudeste 0 -- -- 33
2017-10-13 13:00:00 24.5 6 Sudeste 9 Sudeste 0 -- -- 36
2017-10-13 12:00:00 21.1 4 Sur 9 Sudeste 0 -- -- 42
2017-10-13 11:00:00 17.6 4 Sur 8 Sur 0 -- -- 54
2017-10-13 10:00:00 13.4 0 Calma 9 Oeste 0 -- -- 69
2017-10-13 09:00:00 10.7 5 Noroeste 12 Norte 0 -- -- 74
2017-10-13 08:00:00 9.7 6 Norte 9 Norte 0 -- -- 83
2017-10-13 07:00:00 11.1 5 Oeste 13 Norte 0 -- -- 75
2017-10-13 06:00:00 11.5 3 Noroeste 10 Noroeste 0 -- -- 75
2017-10-13 05:00:00 12 7 Noroeste 13 Noroeste 0 -- -- 75
2017-10-13 04:00:00 12.1 4 Noroeste 10 Noroeste 0 -- -- 77
2017-10-13 03:00:00 13 5 Oeste 9 Norte 0 -- -- 70
2017-10-13 02:00:00 13.7 7 Noroeste 12 Noroeste 0 -- -- 73
2017-10-13 01:00:00 14.3 6 Noroeste 13 Noroeste 0 -- -- 70
2017-10-13 00:00:00 14.9 6 Noroeste 12 Oeste 0 -- -- 69
2017-10-12 23:00:00 15.7 9 Oeste 12 Oeste 0 -- -- 70
2017-10-12 22:00:00 17.5 5 Noroeste 12 Noroeste 0 -- -- 68
2017-10-12 21:00:00 19.5 6 Norte 13 Este 0 -- -- 64
2017-10-12 20:00:00 20.6 8 Este 22 Sudeste 0 -- -- 62
2017-10-12 19:00:00 22.8 18 Sudeste 27 Sudeste 0 -- -- 53
2017-10-12 18:00:00 24.3 22 Sudeste 28 Sudeste 0 -- -- 49
2017-10-12 17:00:00 26 18 Sudeste 24 Sudeste 0 -- -- 40
2017-10-12 16:00:00 26.7 13 Sudeste 17 Sudeste 0 -- -- 27
2017-10-12 15:00:00 26.5 11 Sudeste 18 Sudeste 0 -- -- 29
2017-10-12 14:00:00 25.2 10 Sudeste 13 Sudeste 0 -- -- 37
2017-10-12 13:00:00 23.1 6 Sudeste 11 Sudeste 0 -- -- 39
2017-10-12 12:00:00 20.1 4 Sudeste 9 Sudeste 0 -- -- 42
2017-10-12 11:00:00 16 3 Sudoeste 8 Noroeste 0 -- -- 56
2017-10-12 10:00:00 12 4 Noroeste 9 Noroeste 0 -- -- 66
2017-10-12 09:00:00 9.6 4 Noroeste 7 Noroeste 0 -- -- 74
2017-10-12 08:00:00 9.7 6 Norte 8 Norte 0 -- -- 74
2017-10-12 07:00:00 10.7 0 Calma 10 Noroeste 0 -- -- 68
2017-10-12 06:00:00 11.1 6 Noroeste 11 Noroeste 0 -- -- 68
2017-10-12 05:00:00 11.4 6 Noroeste 13 Noroeste 0 -- -- 68
2017-10-12 04:00:00 11.5 8 Noroeste 15 Noroeste 0 -- -- 67
2017-10-12 03:00:00 12.2 6 Oeste 17 Norte 0 -- -- 63
2017-10-12 02:00:00 12.9 9 Oeste 13 Noroeste 0 -- -- 62
2017-10-12 01:00:00 13.4 6 Noroeste 13 Norte 0 -- -- 64
2017-10-12 00:00:00 14.1 6 Noroeste 9 Noroeste 0 -- -- 67
2017-10-11 23:00:00 15.4 6 Oeste 13 Oeste 0 -- -- 60
2017-10-11 22:00:00 16.2 8 Oeste 15 Noroeste 0 -- -- 61
2017-10-11 21:00:00 18.3 6 Noroeste 12 Norte 0 -- -- 56
2017-10-11 20:00:00 20.7 4 Nordeste 24 Sudeste 0 -- -- 52
2017-10-11 19:00:00 22.4 20 Sudeste 26 Sudeste 0 -- -- 48
2017-10-11 18:00:00 24.1 21 Sudeste 25 Sudeste 0 -- -- 43
2017-10-11 17:00:00 25.5 17 Sudeste 23 Sudeste 0 -- -- 38
2017-10-11 16:00:00 25.8 15 Sudeste 19 Sudeste 0 -- -- 36
2017-10-11 15:00:00 25.2 15 Sudeste 19 Sudeste 0 -- -- 36
2017-10-11 14:00:00 24.3 13 Sudeste 18 Sudeste 0 -- -- 38
2017-10-11 13:00:00 22 6 Sudeste 11 Este 0 -- -- 43
2017-10-11 12:00:00 18.9 5 Sudeste 10 Sudeste 0 -- -- 48
2017-10-11 11:00:00 15.5 4 Sudeste 8 Sudeste 0 -- -- 60
2017-10-11 10:00:00 11.9 2 Sudoeste 6 Este 0 -- -- 71
2017-10-11 09:00:00 9.3 0 Calma 9 Noroeste 0 -- -- 80
2017-10-11 08:00:00 8.8 5 Norte 9 Noroeste 0 -- -- 82
2017-10-11 07:00:00 9.3 5 Noroeste 9 Norte 0 -- -- 80
2017-10-11 06:00:00 9.7 6 Noroeste 13 Noroeste 0 -- -- 79
2017-10-11 05:00:00 10.2 6 Noroeste 15 Noroeste 0 -- -- 76
2017-10-11 04:00:00 10.6 3 Oeste 10 Noroeste 0 -- -- 74
2017-10-11 03:00:00 11.1 7 Noroeste 13 Noroeste 0 -- -- 74
2017-10-11 02:00:00 11.9 4 Oeste 15 Norte 0 -- -- 70
2017-10-11 01:00:00 12.7 8 Noroeste 11 Noroeste 0 -- -- 68
2017-10-11 00:00:00 13.3 6 Noroeste 12 Oeste 0 -- -- 67
2017-10-10 23:00:00 14.3 5 Oeste 14 Oeste 0 -- -- 63
2017-10-10 22:00:00 15.1 7 Noroeste 12 Oeste 0 -- -- 61
2017-10-10 21:00:00 17.2 5 Noroeste 9 Noroeste 0 -- -- 55
2017-10-10 20:00:00 19.3 3 Sudeste 19 Sudeste 0 -- -- 51
2017-10-10 19:00:00 21 16 Sudeste 24 Sudeste 0 -- -- 49
2017-10-10 18:00:00 22.6 17 Sudeste 22 Sudeste 0 -- -- 45
2017-10-10 17:00:00 23.9 18 Sudeste 22 Sudeste 0 -- -- 40
2017-10-10 16:00:00 24.5 13 Sudeste 19 Sudeste 0 -- -- 34
2017-10-10 15:00:00 24.8 12 Sudeste 21 Sudeste 0 -- -- 32
2017-10-10 14:00:00 24 10 Sudeste 18 Sudeste 0 -- -- 35
2017-10-10 13:00:00 22 10 Sudeste 15 Sudeste 0 -- -- 39
2017-10-10 12:00:00 19.4 6 Este 10 Este 0 -- -- 45
2017-10-10 11:00:00 15.5 3 Sudoeste 7 Sudoeste 0 -- -- 55
2017-10-10 10:00:00 11.8 3 Oeste 10 Norte 0 -- -- 69
2017-10-10 09:00:00 8.9 0 Calma 9 Noroeste 0 -- -- 77
2017-10-10 08:00:00 8 6 Noroeste 9 Noroeste 0 -- -- 81
2017-10-10 07:00:00 8.8 5 Noroeste 9 Norte 0 -- -- 77
2017-10-10 06:00:00 9.1 5 Noroeste 12 Noroeste 0 -- -- 77
2017-10-10 05:00:00 9.5 6 Oeste 14 Norte 0 -- -- 74
2017-10-10 04:00:00 10.2 6 Noroeste 11 Oeste 0 -- -- 72
2017-10-10 03:00:00 10.2 7 Noroeste 15 Norte 0 -- -- 74
2017-10-10 02:00:00 11.2 5 Oeste 14 Noroeste 0 -- -- 69
2017-10-10 01:00:00 12.1 7 Noroeste 15 Norte 0 -- -- 66
2017-10-10 00:00:00 13.2 6 Oeste 13 Oeste 0 -- -- 63
2017-10-09 23:00:00 14.4 7 Noroeste 14 Noroeste 0 -- -- 60
2017-10-09 22:00:00 15.3 10 Noroeste 13 Noroeste 0 -- -- 57
2017-10-09 21:00:00 18 3 Sudeste 16 Sudeste 0 -- -- 51
2017-10-09 20:00:00 19.3 16 Sudeste 23 Sudeste 0 -- -- 50
2017-10-09 19:00:00 21.7 17 Sudeste 28 Sudeste 0 -- -- 39
2017-10-09 18:00:00 23.2 22 Sudeste 33 Sudeste 0 -- -- 36
2017-10-09 17:00:00 24.4 21 Sudeste 31 Sudeste 0 -- -- 35
2017-10-09 16:00:00 24 22 Sudeste 31 Sudeste 0 -- -- 37
2017-10-09 15:00:00 24.1 17 Sudeste 26 Sudeste 0 -- -- 38
2017-10-09 14:00:00 23.8 14 Sudeste 22 Sudeste 0 -- -- 38
2017-10-09 13:00:00 22.2 11 Sudeste 16 Sudeste 0 -- -- 38
2017-10-09 12:00:00 18.9 5 Sudeste 10 Este 0 -- -- 40
2017-10-09 11:00:00 15.7 5 Sudeste 10 Este 0 -- -- 50
2017-10-09 10:00:00 11.2 3 Oeste 10 Noroeste 0 -- -- 63
2017-10-09 09:00:00 8.6 2 Noroeste 9 Norte 0 -- -- 72
2017-10-09 08:00:00 7.7 6 Noroeste 10 Oeste 0 -- -- 72
2017-10-09 07:00:00 7.7 5 Noroeste 13 Norte 0 -- -- 73
2017-10-09 06:00:00 8.5 9 Noroeste 15 Noroeste 0 -- -- 70
2017-10-09 05:00:00 9 7 Noroeste 15 Norte 0 -- -- 71
2017-10-09 04:00:00 9.8 7 Noroeste 10 Noroeste 0 -- -- 70
2017-10-09 03:00:00 10.3 7 Noroeste 12 Noroeste 0 -- -- 70
2017-10-09 02:00:00 11.1 7 Noroeste 12 Noroeste 0 -- -- 67
2017-10-09 01:00:00 11.4 9 Noroeste 17 Norte 0 -- -- 66
2017-10-09 00:00:00 12.8 6 Noroeste 15 Noroeste 0 -- -- 62
2017-10-08 23:00:00 13.6 9 Oeste 13 Oeste 0 -- -- 59
2017-10-08 22:00:00 14.7 9 Noroeste 13 Noroeste 0 -- -- 56
2017-10-08 21:00:00 17.3 8 Norte 12 Norte 0 -- -- 46
2017-10-08 20:00:00 19 4 Este 20 Sudeste 0 -- -- 44
2017-10-08 19:00:00 20.9 17 Sudeste 26 Sudeste 0 -- -- 43
2017-10-08 18:00:00 22.4 22 Sudeste 27 Sudeste 0 -- -- 42
2017-10-08 17:00:00 23.6 21 Sudeste 27 Sudeste 0 -- -- 39
2017-10-08 16:00:00 24.3 15 Sudeste 19 Sudeste 0 -- -- 36
2017-10-08 15:00:00 23.9 13 Sudeste 17 Sudeste 0 -- -- 35
2017-10-08 14:00:00 22.7 8 Sudeste 14 Sudeste 0 -- -- 37
2017-10-08 13:00:00 20.5 7 Sudeste 13 Sudeste 0 -- -- 43
2017-10-08 12:00:00 18 6 Este 12 Sudeste 0 -- -- 48
2017-10-08 11:00:00 13.7 3 Norte 9 Norte 0 -- -- 58
2017-10-08 10:00:00 9.8 3 Oeste 8 Noroeste 0 -- -- 75
2017-10-08 09:00:00 7.1 4 Norte 11 Noroeste 0 -- -- 84
2017-10-08 08:00:00 7 5 Noroeste 12 Noroeste 0 -- -- 84
2017-10-08 07:00:00 6.8 8 Noroeste 13 Norte 0 -- -- 86
2017-10-08 06:00:00 7.7 5 Oeste 12 Norte 0 -- -- 83
2017-10-08 05:00:00 8.1 8 Noroeste 13 Noroeste 0 -- -- 81
2017-10-08 04:00:00 8.4 7 Noroeste 12 Noroeste 0 -- -- 81
2017-10-08 03:00:00 9.3 4 Noroeste 8 Noroeste 0 -- -- 77
2017-10-08 02:00:00 10 6 Noroeste 10 Noroeste 0 -- -- 75
2017-10-08 01:00:00 10.5 8 Noroeste 12 Noroeste 0 -- -- 73
2017-10-08 00:00:00 11.6 8 Oeste 11 Oeste 0 -- -- 69
2017-10-07 23:00:00 12.6 8 Oeste 12 Oeste 0 -- -- 65
2017-10-07 22:00:00 14.1 5 Noroeste 11 Norte 0 -- -- 61
2017-10-07 21:00:00 16.1 3 Este 16 Sudeste 0 -- -- 54
2017-10-07 20:00:00 17.1 13 Sudeste 24 Sudeste 0 -- -- 53
2017-10-07 19:00:00 19.1 20 Sudeste 30 Sudeste 0 -- -- 48
2017-10-07 18:00:00 21 23 Sudeste 29 Sudeste 0 -- -- 41
2017-10-07 17:00:00 22.2 20 Sudeste 28 Sudeste 0 -- -- 36
2017-10-07 16:00:00 22.4 22 Sudeste 27 Sudeste 0 -- -- 36
2017-10-07 15:00:00 23.3 12 Sudeste 22 Sudeste 0 -- -- 30
2017-10-07 14:00:00 22.5 10 Sudeste 17 Sudeste 0 -- -- 31
2017-10-07 13:00:00 20.4 13 Sudeste 22 Sudeste 0 -- -- 37
2017-10-07 12:00:00 17.4 10 Sudeste 14 Sudeste 0 -- -- 33
2017-10-07 11:00:00 14.7 7 Sudeste 10 Sudeste 0 -- -- 36
2017-10-07 10:00:00 10.8 3 Oeste 10 Noroeste 0 -- -- 42
2017-10-07 09:00:00 7.7 2 Noroeste 12 Noroeste 0 -- -- 48
2017-10-07 08:00:00 6.2 7 Noroeste 11 Noroeste 0 -- -- 52
2017-10-07 07:00:00 7.4 9 Noroeste 13 Noroeste 0 -- -- 49
2017-10-07 06:00:00 7.7 10 Noroeste 14 Noroeste 0 -- -- 49
2017-10-07 05:00:00 9.3 10 Oeste 16 Oeste 0 -- -- 45
2017-10-07 04:00:00 10.5 7 Noroeste 13 Oeste 0 -- -- 40
2017-10-07 03:00:00 11.9 9 Oeste 12 Oeste 0 -- -- 37
2017-10-07 02:00:00 13.8 7 Sudoeste 25 Oeste 0 -- -- 33
2017-10-07 01:00:00 15.2 15 Oeste 25 Oeste 0 -- -- 30
2017-10-07 00:00:00 18.1 10 Sudoeste 20 Noroeste 0 -- -- 23
2017-10-06 23:00:00 20.2 10 Norte 43 Norte 0 -- -- 18
2017-10-06 22:00:00 21.7 28 Norte 44 Norte 0 -- -- 14
2017-10-06 21:00:00 22.1 13 Norte 42 Nordeste 0 -- -- 13
2017-10-06 20:00:00 22.6 12 Norte 47 Norte 0 -- -- 15
2017-10-06 19:00:00 24.8 13 Norte 49 Norte 0 -- -- 18
2017-10-06 18:00:00 26.2 21 Norte 41 Norte 0 -- -- 21
2017-10-06 17:00:00 26.2 17 Sudeste 28 Sudeste 0 -- -- 34
2017-10-06 16:00:00 26.5 20 Sudeste 32 Sudeste 0 -- -- 37
2017-10-06 15:00:00 25.1 23 Sudeste 29 Sudeste 0 -- -- 44
2017-10-06 14:00:00 25.9 14 Sudeste 22 Sudeste 0 -- -- 44
2017-10-06 13:00:00 24.1 10 Sudeste 18 Sudeste 0 -- -- 35
2017-10-06 12:00:00 20.8 9 Sudeste 14 Sudeste 0 -- -- 44
2017-10-06 11:00:00 17.5 5 Sudeste 9 Sudeste 0 -- -- 54
2017-10-06 10:00:00 13.1 3 Oeste 10 Norte 0 -- -- 67
2017-10-06 09:00:00 10.3 8 Noroeste 12 Oeste 0 -- -- 79
2017-10-06 08:00:00 10.3 5 Oeste 13 Norte 0 -- -- 79
2017-10-06 07:00:00 11 5 Noroeste 10 Norte 0 -- -- 80
2017-10-06 06:00:00 11.7 4 Noroeste 12 Norte 0 -- -- 80
2017-10-06 05:00:00 12.9 4 Nordeste 9 Norte 0 -- -- 76
2017-10-06 04:00:00 14.1 2 Oeste 8 Norte 0 -- -- 71
2017-10-06 03:00:00 14.7 6 Norte 13 Oeste 0 -- -- 73
2017-10-06 02:00:00 16.1 4 Noroeste 15 Noroeste 0 -- -- 63
2017-10-06 01:00:00 17.1 7 Oeste 16 Noroeste 0 -- -- 62
2017-10-06 00:00:00 18.3 12 Oeste 15 Oeste 0 -- -- 61
2017-10-05 23:00:00 19.2 6 Noroeste 15 Oeste 0 -- -- 63
2017-10-05 22:00:00 20.3 8 Oeste 18 Norte 0 -- -- 65
2017-10-05 21:00:00 22.5 10 Norte 15 Norte 0 -- -- 58
2017-10-05 20:00:00 24 5 Nordeste 22 Sudeste 0 -- -- 57
2017-10-05 19:00:00 25.7 21 Sudeste 27 Sudeste 0 -- -- 51
2017-10-05 18:00:00 26.8 23 Sudeste 28 Sudeste 0 -- -- 49
2017-10-05 17:00:00 27.8 20 Sudeste 26 Sudeste 0 -- -- 45
2017-10-05 16:00:00 27.7 14 Sudeste 19 Sudeste 0 -- -- 45
2017-10-05 15:00:00 27.4 14 Sudeste 19 Sudeste 0 -- -- 45
2017-10-05 14:00:00 26.5 13 Sudeste 17 Sudeste 0 -- -- 45
2017-10-05 13:00:00 24.8 11 Sudeste 15 Sudeste 0 -- -- 50
2017-10-05 12:00:00 22 6 Este 11 Este 0 -- -- 54
2017-10-05 11:00:00 18.6 3 Sudoeste 8 Sur 0 -- -- 64
2017-10-05 10:00:00 14.8 3 Oeste 7 Noroeste 0 -- -- 82
2017-10-05 09:00:00 12.2 5 Noroeste 9 Noroeste 0 -- -- 92
2017-10-05 08:00:00 11.5 5 Norte 12 Norte 0 -- -- 94
2017-10-05 07:00:00 12.4 5 Noroeste 9 Noroeste 0 -- -- 92
2017-10-05 06:00:00 12.5 7 Noroeste 10 Noroeste 0 -- -- 92
2017-10-05 05:00:00 13.1 8 Noroeste 14 Noroeste 0 -- -- 92
2017-10-05 04:00:00 13.9 6 Noroeste 10 Noroeste 0 -- -- 90
2017-10-05 03:00:00 14.1 8 Norte 11 Norte 0 -- -- 89
2017-10-05 02:00:00 15.3 3 Norte 8 Oeste 0 -- -- 85
2017-10-05 01:00:00 16.4 4 Noroeste 12 Noroeste 0 -- -- 81
2017-10-05 00:00:00 16.9 5 Noroeste 10 Noroeste 0 -- -- 79
2017-10-04 23:00:00 17.6 8 Noroeste 12 Noroeste 0 -- -- 76
2017-10-04 22:00:00 19.5 7 Norte 11 Norte 0 -- -- 69
2017-10-04 21:00:00 20.9 6 Este 20 Sudeste 0 -- -- 65
2017-10-04 20:00:00 21.9 17 Sudeste 21 Sudeste 0 -- -- 63
2017-10-04 19:00:00 23.4 11 Sudeste 23 Sudeste 0 -- -- 59
2017-10-04 18:00:00 24.9 16 Sudeste 22 Sudeste 0 -- -- 54
2017-10-04 17:00:00 26 16 Sudeste 23 Sudeste 0 -- -- 50
2017-10-04 16:00:00 26.2 16 Sudeste 22 Sudeste 0 -- -- 48
2017-10-04 15:00:00 26.9 9 Sudeste 18 Sudeste 0 -- -- 47
2017-10-04 14:00:00 26.1 12 Sudeste 19 Sudeste 0 -- -- 50
2017-10-04 13:00:00 24.8 12 Sudeste 17 Sudeste 0 -- -- 54
2017-10-04 12:00:00 22.6 6 Sudeste 13 Este 0 -- -- 59
2017-10-04 11:00:00 19.3 4 Sur 10 Norte 0 -- -- 64
2017-10-04 10:00:00 15.7 3 Oeste 13 Norte 0 -- -- 79
2017-10-04 09:00:00 12.8 7 Noroeste 12 Noroeste 0 -- -- 89
2017-10-04 08:00:00 12.5 7 Oeste 13 Noroeste 0 -- -- 94
2017-10-04 07:00:00 13 4 Norte 13 Norte 0 -- -- 88
2017-10-04 06:00:00 13 12 Norte 15 Norte 0 -- -- 89
2017-10-04 05:00:00 14.3 8 Norte 15 Noroeste 0 -- -- 83
2017-10-04 04:00:00 14.9 11 Noroeste 13 Noroeste 0 -- -- 82
2017-10-04 03:00:00 14.7 9 Norte 13 Norte 0 -- -- 87
2017-10-04 02:00:00 15.1 4 Norte 17 Norte 0 -- -- 86
2017-10-04 01:00:00 15.8 13 Norte 18 Norte 0 -- -- 85
2017-10-04 00:00:00 16.4 6 Noroeste 18 Noroeste 0 -- -- 85
2017-10-03 23:00:00 17 6 Noroeste 16 Noroeste 0 -- -- 83
2017-10-03 22:00:00 18 6 Oeste 13 Norte 0 -- -- 80
2017-10-03 21:00:00 19.7 6 Norte 12 Norte 0 -- -- 74
2017-10-03 20:00:00 20.9 10 Sudeste 17 Sudeste 0 -- -- 71
2017-10-03 19:00:00 22.6 12 Sudeste 18 Sudeste 0 -- -- 65
2017-10-03 18:00:00 24 15 Sudeste 26 Sudeste 0 -- -- 59
2017-10-03 17:00:00 24.5 18 Sudeste 24 Sudeste 0 -- -- 57
2017-10-03 16:00:00 24.6 18 Sudeste 23 Sudeste 0 -- -- 57
2017-10-03 15:00:00 24.4 11 Sudeste 16 Sudeste 0 -- -- 57
2017-10-03 14:00:00 22.7 8 Sudeste 15 Sudeste 0 -- -- 62
2017-10-03 13:00:00 21.5 7 Sur 13 Sudeste 0 -- -- 66
2017-10-03 12:00:00 19.1 9 Sudeste 12 Sudeste 0 -- -- 75
2017-10-03 11:00:00 18.2 5 Este 12 Este 0 -- -- 74
2017-10-03 10:00:00 15.2 3 Sudoeste 7 Oeste 0 -- -- 88
2017-10-03 09:00:00 12.5 4 Noroeste 9 Noroeste 0 -- -- 96
2017-10-03 08:00:00 12.4 6 Noroeste 11 Norte 0 -- -- 97
2017-10-03 07:00:00 12.9 6 Noroeste 10 Noroeste 0 -- -- 94
2017-10-03 06:00:00 13.4 7 Noroeste 12 Oeste 0 -- -- 95
2017-10-03 05:00:00 13.5 5 Noroeste 12 Noroeste 0 -- -- 94
2017-10-03 04:00:00 14.1 5 Noroeste 11 Norte 0 -- -- 94
2017-10-03 03:00:00 14.9 8 Noroeste 10 Noroeste 0 -- -- 91
2017-10-03 02:00:00 15.7 4 Noroeste 10 Norte 0 -- -- 88
2017-10-03 01:00:00 16.4 7 Oeste 12 Oeste 0 -- -- 85
2017-10-03 00:00:00 17.2 5 Oeste 12 Noroeste 0 -- -- 82
2017-10-02 23:00:00 18.4 5 Noroeste 8 Noroeste 0 -- -- 77
2017-10-02 22:00:00 20.1 4 Norte 9 Sudeste 0 -- -- 71
2017-10-02 21:00:00 20.7 6 Sudeste 16 Sudeste 0 -- -- 70
2017-10-02 20:00:00 21.4 15 Sudeste 22 Sudeste 0 -- -- 69
2017-10-02 19:00:00 23.2 16 Sudeste 26 Sudeste 0 -- -- 62
2017-10-02 18:00:00 25 20 Sudeste 28 Sudeste 0 -- -- 55
2017-10-02 17:00:00 25.4 18 Sudeste 25 Sudeste 0 -- -- 54
2017-10-02 16:00:00 26.2 17 Sudeste 23 Sudeste 0 -- -- 50
2017-10-02 15:00:00 26.4 9 Sudeste 18 Sudeste 0 -- -- 49
2017-10-02 14:00:00 25.4 12 Sudeste 18 Sudeste 0 -- -- 51
2017-10-02 13:00:00 23.4 10 Sudeste 15 Sudeste 0 -- -- 57
2017-10-02 12:00:00 21.6 6 Sudeste 14 Sudeste 0 -- -- 65
2017-10-02 11:00:00 18 4 Este 9 Este 0 -- -- 78
2017-10-02 10:00:00 14.4 2 Oeste 9 Noroeste 0 -- -- 94
2017-10-02 09:00:00 12.8 2 Noroeste 10 Noroeste 0 -- -- 97
2017-10-02 08:00:00 12.6 6 Noroeste 10 Noroeste 0 -- -- 97
2017-10-02 07:00:00 13 5 Oeste 8 Norte 0 -- -- 97
2017-10-02 06:00:00 13.6 4 Noroeste 8 Noroeste 0 -- -- 96
2017-10-02 05:00:00 13.8 6 Oeste 9 Oeste 0 -- -- 95
2017-10-02 04:00:00 14 3 Norte 9 Noroeste 0 -- -- 95
2017-10-02 03:00:00 14.3 2 Norte 6 Oeste 0 -- -- 93
2017-10-02 02:00:00 14.5 3 Este 8 Norte 0 -- -- 92
2017-10-02 01:00:00 14.9 5 Noroeste 7 Noroeste 0 -- -- 91
2017-10-02 00:00:00 15.1 4 Noroeste 8 Norte 0 -- -- 89
2017-10-01 23:00:00 15.5 6 Oeste 9 Norte 0 -- -- 88
2017-10-01 22:00:00 16.4 6 Norte 9 Norte 0 -- -- 83
2017-10-01 21:00:00 17.2 5 Nordeste 10 Este 0 -- -- 79
2017-10-01 20:00:00 17.9 7 Sudeste 14 Sudeste 0 -- -- 76
2017-10-01 19:00:00 19 10 Sudeste 17 Sudeste 0 -- -- 75
2017-10-01 18:00:00 20 10 Sudeste 13 Sudeste 0 -- -- 71
2017-10-01 17:00:00 20.3 4 Sudeste 8 Sudeste 0 -- -- 66
2017-10-01 16:00:00 20.1 5 Sudeste 10 Sudeste 0 -- -- 66
2017-10-01 15:00:00 20.1 5 Sudeste 10 Sudeste 0 -- -- 67
2017-10-01 14:00:00 20 4 Este 10 Este 0 -- -- 67
2017-10-01 13:00:00 19.2 4 Este 9 Sudeste 0 -- -- 69
2017-10-01 12:00:00 18.4 4 Este 8 Este 0 -- -- 72
2017-10-01 11:00:00 16.8 3 Este 6 Oeste 0 -- -- 80
2017-10-01 10:00:00 15.3 2 Nordeste 10 Oeste 0 -- -- 89
2017-10-01 09:00:00 14.7 3 Sudoeste 7 Oeste 0 -- -- 87
2017-10-01 08:00:00 14.5 4 Noroeste 9 Oeste 0 -- -- 89
2017-10-01 07:00:00 14.6 3 Noroeste 6 Oeste 0 -- -- 90
2017-10-01 06:00:00 14.5 5 Noroeste 8 Oeste 0 -- -- 91
2017-10-01 05:00:00 14.5 5 Oeste 10 Oeste 0 -- -- 91
2017-10-01 04:00:00 14.5 10 Oeste 13 Oeste 0 -- -- 94
2017-10-01 03:00:00 15.2 4 Oeste 7 Oeste 0 -- -- 95
2017-10-01 02:00:00 15.4 0 Calma 6 Noroeste 0 -- -- 95
2017-10-01 01:00:00 15.4 4 Oeste 5 Sudeste 0 -- -- 95
2017-10-01 00:00:00 15.5 5 Nordeste 6 Nordeste 0 -- -- 94
2017-09-30 23:00:00 15.7 2 Sur 6 Nordeste 0 -- -- 91
2017-09-30 22:00:00 16.3 4 Este 8 Sur 0 -- -- 90
2017-09-30 21:00:00 16.6 7 Sur 12 Sudeste 0 -- -- 87
2017-09-30 20:00:00 17.4 7 Sudeste 16 Sudeste 0 -- -- 86
2017-09-30 19:00:00 18.3 11 Sudeste 18 Sudeste 0 -- -- 83
2017-09-30 18:00:00 19.4 13 Sudeste 17 Sudeste 0 -- -- 77
2017-09-30 17:00:00 19.4 8 Sudeste 9 Sudeste 0 -- -- 79
2017-09-30 16:00:00 19.7 3 Sudeste 8 Sudoeste 0 -- -- 77
2017-09-30 15:00:00 18.1 3 Oeste 6 Oeste 0 -- -- 84
2017-09-30 14:00:00 16.8 4 Sur 6 Sur 0.2 -- -- 92
2017-09-30 13:00:00 16.3 3 Oeste 9 Oeste 0.4 -- -- 92
2017-09-30 12:00:00 15.7 6 Norte 25 Oeste 1.8 -- -- 93
2017-09-30 11:00:00 15.6 16 Oeste 26 Oeste 0 -- -- 84
2017-09-30 10:00:00 15 5 Noroeste 10 Oeste 0 -- -- 85
2017-09-30 09:00:00 14.5 4 Noroeste 6 Noroeste 0 -- -- 86
2017-09-30 08:00:00 13.7 5 Noroeste 6 Noroeste 0 -- -- 90
2017-09-30 07:00:00 14.1 2 Noroeste 7 Norte 0 -- -- 88
2017-09-30 06:00:00 14.4 3 Norte 12 Oeste 0 -- -- 87
2017-09-30 05:00:00 14.3 7 Noroeste 9 Oeste 0 -- -- 87
2017-09-30 04:00:00 14.5 5 Oeste 10 Noroeste 0 -- -- 86
2017-09-30 03:00:00 14.5 6 Noroeste 10 Noroeste 0 -- -- 87
2017-09-30 02:00:00 15.3 7 Noroeste 9 Noroeste 0 -- -- 84
2017-09-30 01:00:00 15.9 8 Noroeste 10 Noroeste 0 -- -- 82
2017-09-30 00:00:00 16.8 6 Noroeste 15 Oeste 0 -- -- 78
2017-09-29 23:00:00 17.5 13 Oeste 15 Oeste 0 -- -- 75
2017-09-29 22:00:00 19.1 8 Noroeste 11 Noroeste 0 -- -- 70
2017-09-29 21:00:00 21.1 6 Este 17 Sudeste 0 -- -- 63
2017-09-29 20:00:00 21.7 16 Sudeste 24 Sudeste 0 -- -- 64
2017-09-29 19:00:00 23.6 18 Sudeste 26 Sudeste 0 -- -- 59
2017-09-29 18:00:00 25.1 21 Sudeste 28 Sudeste 0 -- -- 53
2017-09-29 17:00:00 25.8 21 Sudeste 28 Sudeste 0 -- -- 52
2017-09-29 16:00:00 26 21 Sudeste 27 Sudeste 0 -- -- 50
2017-09-29 15:00:00 26.1 17 Sudeste 22 Sudeste 0 -- -- 50
2017-09-29 14:00:00 25.2 12 Sudeste 20 Sudeste 0 -- -- 52
2017-09-29 13:00:00 24.1 10 Sudeste 16 Sudeste 0 -- -- 51
2017-09-29 12:00:00 21.5 9 Sudeste 13 Sudeste 0 -- -- 57
2017-09-29 11:00:00 18.4 6 Este 11 Sudeste 0 -- -- 67
2017-09-29 10:00:00 14.8 5 Norte 11 Norte 0 -- -- 78
2017-09-29 09:00:00 12.1 4 Noroeste 12 Oeste 0 -- -- 90
2017-09-29 08:00:00 11.7 5 Noroeste 13 Noroeste 0 -- -- 93
2017-09-29 07:00:00 11.9 6 Noroeste 9 Noroeste 0 -- -- 91
2017-09-29 06:00:00 12.3 8 Noroeste 12 Noroeste 0 -- -- 92
2017-09-29 05:00:00 12.9 6 Noroeste 11 Noroeste 0 -- -- 88
2017-09-29 04:00:00 13.2 8 Noroeste 11 Noroeste 0 -- -- 88
2017-09-29 03:00:00 14 6 Noroeste 12 Noroeste 0 -- -- 87
2017-09-29 02:00:00 14.9 9 Noroeste 12 Noroeste 0 -- -- 83
2017-09-29 01:00:00 15.1 8 Noroeste 12 Norte 0 -- -- 82
2017-09-29 00:00:00 16.7 6 Noroeste 13 Noroeste 0 -- -- 76
2017-09-28 23:00:00 17.6 9 Noroeste 13 Noroeste 0 -- -- 72
2017-09-28 22:00:00 18.9 9 Norte 12 Norte 0 -- -- 68
2017-09-28 21:00:00 20.8 4 Este 11 Sur 0 -- -- 62
2017-09-28 20:00:00 22.1 9 Sudeste 20 Sudoeste 0 -- -- 59
2017-09-28 19:00:00 24.1 13 Sur 24 Sudeste 0 -- -- 52
2017-09-28 18:00:00 24.9 18 Sudeste 24 Sudeste 0 -- -- 49
2017-09-28 17:00:00 25.7 15 Sudeste 22 Sudeste 0 -- -- 45
2017-09-28 16:00:00 26.3 14 Sudeste 19 Sudeste 0 -- -- 42
2017-09-28 15:00:00 25.6 12 Sudeste 21 Sudeste 0 -- -- 47
2017-09-28 14:00:00 25.4 8 Sudeste 21 Sudeste 0 -- -- 48
2017-09-28 13:00:00 23.5 12 Sudeste 17 Sudeste 0 -- -- 54
2017-09-28 12:00:00 21.3 8 Sudeste 14 Sudeste 0 -- -- 59
2017-09-28 11:00:00 18.7 5 Sudeste 10 Sudeste 0 -- -- 65
2017-09-28 10:00:00 15 2 Oeste 6 Oeste 0 -- -- 79
2017-09-28 09:00:00 12.3 0 Calma 8 Noroeste 0 -- -- 88
2017-09-28 08:00:00 11.5 7 Noroeste 12 Norte 0 -- -- 90
2017-09-28 07:00:00 11.8 7 Noroeste 13 Norte 0 -- -- 90
2017-09-28 06:00:00 12.5 5 Noroeste 9 Noroeste 0 -- -- 87
2017-09-28 05:00:00 12.9 6 Noroeste 12 Oeste 0 -- -- 85
2017-09-28 04:00:00 13.2 9 Noroeste 14 Oeste 0 -- -- 84
2017-09-28 03:00:00 13.8 8 Oeste 10 Oeste 0 -- -- 82
2017-09-28 02:00:00 13.8 6 Noroeste 9 Noroeste 0 -- -- 82
2017-09-28 01:00:00 13.9 6 Norte 9 Norte 0 -- -- 81
2017-09-28 00:00:00 15.3 6 Oeste 9 Oeste 0 -- -- 75
2017-09-27 23:00:00 16.3 6 Noroeste 12 Oeste 0 -- -- 72
2017-09-27 22:00:00 17.9 8 Noroeste 12 Norte 0 -- -- 66
2017-09-27 21:00:00 19.8 4 Nordeste 9 Sudeste 0 -- -- 59
2017-09-27 20:00:00 21.7 9 Sur 17 Sur 0 -- -- 53
2017-09-27 19:00:00 23.7 11 Sur 21 Sudeste 0 -- -- 48
2017-09-27 18:00:00 24.2 15 Sudeste 22 Sudeste 0 -- -- 45
2017-09-27 17:00:00 24.7 15 Sudeste 21 Sudeste 0 -- -- 44
2017-09-27 16:00:00 24.9 9 Sudeste 17 Sudeste 0 -- -- 45
2017-09-27 15:00:00 23.8 10 Sudeste 19 Sudeste 0 -- -- 48
2017-09-27 14:00:00 23 10 Sudeste 20 Sudeste 0 -- -- 50
2017-09-27 13:00:00 21.3 11 Sudeste 18 Sudeste 0 -- -- 56
2017-09-27 12:00:00 19.7 10 Sudeste 16 Sudeste 0 -- -- 65
2017-09-27 11:00:00 17.2 6 Sudeste 10 Sudeste 0 -- -- 69
2017-09-27 10:00:00 14.2 3 Sudeste 8 Este 0 -- -- 80
2017-09-27 09:00:00 11.4 3 Oeste 8 Oeste 0 -- -- 92
2017-09-27 08:00:00 10.8 5 Oeste 14 Noroeste 0 -- -- 89
2017-09-27 07:00:00 11.1 5 Noroeste 10 Oeste 0 -- -- 92
2017-09-27 06:00:00 11.6 4 Norte 12 Oeste 0 -- -- 89
2017-09-27 05:00:00 12.3 5 Noroeste 8 Noroeste 0 -- -- 89
2017-09-27 04:00:00 13 5 Noroeste 6 Oeste 0 -- -- 84
2017-09-27 03:00:00 13.4 4 Norte 10 Oeste 0 -- -- 84
2017-09-27 02:00:00 13.8 6 Oeste 9 Oeste 0 -- -- 82
2017-09-27 01:00:00 14 6 Oeste 11 Oeste 0 -- -- 81
2017-09-27 00:00:00 14.8 9 Noroeste 12 Noroeste 0 -- -- 79
2017-09-26 23:00:00 15.9 5 Noroeste 10 Noroeste 0 -- -- 75
2017-09-26 22:00:00 17.8 9 Sudeste 13 Sudeste 0 -- -- 68
2017-09-26 21:00:00 18.2 10 Sudeste 26 Sudeste 0 -- -- 68
2017-09-26 20:00:00 19.4 19 Sudeste 31 Sudeste 0 -- -- 64
2017-09-26 19:00:00 21.6 19 Sudeste 33 Sudeste 0 -- -- 56
2017-09-26 18:00:00 22.9 19 Sudeste 34 Sudeste 0 -- -- 50
2017-09-26 17:00:00 22.7 21 Sudeste 32 Sudeste 0 -- -- 50
2017-09-26 16:00:00 23.9 20 Sudeste 33 Sudeste 0 -- -- 49
2017-09-26 15:00:00 22.7 21 Sudeste 31 Sudeste 0 -- -- 51
2017-09-26 14:00:00 23.2 15 Sudeste 21 Sudeste 0 -- -- 48
2017-09-26 13:00:00 22.3 14 Sudeste 21 Sudeste 0 -- -- 51
2017-09-26 12:00:00 21.3 9 Sudeste 14 Sudeste 0 -- -- 56
2017-09-26 11:00:00 18.7 6 Este 11 Este 0 -- -- 57
2017-09-26 10:00:00 15.6 2 Oeste 6 Este 0 -- -- 68
2017-09-26 09:00:00 13.1 6 Noroeste 14 Norte 0 -- -- 76
2017-09-26 08:00:00 12.3 8 Noroeste 13 Noroeste 0 -- -- 77
2017-09-26 07:00:00 12.8 7 Noroeste 10 Noroeste 0 -- -- 74
2017-09-26 06:00:00 13.4 5 Oeste 8 Noroeste 0 -- -- 71
2017-09-26 05:00:00 13.5 7 Noroeste 9 Oeste 0 -- -- 70
2017-09-26 04:00:00 13.7 6 Oeste 9 Oeste 0 -- -- 69
2017-09-26 03:00:00 14.2 4 Oeste 12 Oeste 0 -- -- 67
2017-09-26 02:00:00 14.8 10 Noroeste 13 Noroeste 0 -- -- 64
2017-09-26 01:00:00 16 6 Este 14 Sudeste 0 -- -- 64
2017-09-26 00:00:00 17 13 Sudeste 24 Sudeste 0 -- -- 61
2017-09-25 23:00:00 18.1 13 Oeste 25 Oeste 0 -- -- 52
2017-09-25 22:00:00 19.1 19 Oeste 31 Noroeste 0 -- -- 50
2017-09-25 21:00:00 20.6 21 Noroeste 30 Oeste 0 -- -- 46
2017-09-25 20:00:00 21.6 12 Oeste 35 Oeste 0 -- -- 46
2017-09-25 19:00:00 24.7 23 Oeste 33 Oeste 0 -- -- 39
2017-09-25 18:00:00 26.9 14 Oeste 34 Oeste 0 -- -- 32
2017-09-25 17:00:00 26.6 28 Oeste 39 Oeste 0 -- -- 30
2017-09-25 16:00:00 27.2 11 Sur 23 Oeste 0 -- -- 42
2017-09-25 15:00:00 27.2 4 Noroeste 23 Sudeste 0 -- -- 39
2017-09-25 14:00:00 27 13 Sudeste 23 Sudeste 0 -- -- 42
2017-09-25 13:00:00 25.3 16 Sudeste 19 Sudeste 0 -- -- 46
2017-09-25 12:00:00 21.9 5 Sudeste 10 Sudeste 0 -- -- 52
2017-09-25 11:00:00 17.4 4 Oeste 8 Sudeste 0 -- -- 70
2017-09-25 10:00:00 15.3 5 Sudeste 10 Sudeste 0 -- -- 76
2017-09-25 09:00:00 14.6 3 Sudoeste 9 Oeste 0 -- -- 74
2017-09-25 08:00:00 14.4 4 Oeste 14 Oeste 0 -- -- 74
2017-09-25 07:00:00 14.3 4 Noroeste 14 Norte 0 -- -- 76
2017-09-25 06:00:00 14.2 6 Noroeste 11 Noroeste 0 -- -- 77
2017-09-25 05:00:00 14.4 5 Noroeste 12 Noroeste 0 -- -- 74
2017-09-25 04:00:00 14.7 6 Noroeste 12 Noroeste 0 -- -- 70
2017-09-25 03:00:00 15.1 9 Noroeste 16 Noroeste 0 -- -- 74
2017-09-25 02:00:00 15.5 9 Noroeste 14 Norte 0 -- -- 70
2017-09-25 01:00:00 16.3 5 Noroeste 12 Oeste 0 -- -- 69
2017-09-25 00:00:00 17.4 6 Noroeste 13 Noroeste 0 -- -- 63
2017-09-24 23:00:00 18.3 7 Noroeste 14 Oeste 0 -- -- 61
2017-09-24 22:00:00 19 8 Noroeste 14 Oeste 0 -- -- 60
2017-09-24 21:00:00 21.7 7 Noroeste 13 Este 0 -- -- 57
2017-09-24 20:00:00 23.7 10 Este 23 Sudeste 0 -- -- 51
2017-09-24 19:00:00 25.8 14 Sudeste 27 Sudeste 0 -- -- 49
2017-09-24 18:00:00 26 19 Sudeste 31 Sudeste 0 -- -- 48
2017-09-24 17:00:00 26.8 21 Sudeste 28 Sudeste 0 -- -- 46
2017-09-24 16:00:00 27.3 18 Sudeste 27 Sudeste 0 -- -- 45
2017-09-24 15:00:00 26.4 17 Sudeste 20 Sudeste 0 -- -- 47
2017-09-24 14:00:00 25.4 13 Sudeste 20 Sudeste 0 -- -- 49
2017-09-24 13:00:00 23.7 13 Sudeste 17 Sudeste 0 -- -- 48
2017-09-24 12:00:00 21.2 6 Sudeste 10 Sur 0 -- -- 53
2017-09-24 11:00:00 17.8 3 Sur 8 Este 0 -- -- 66
2017-09-24 10:00:00 14 2 Oeste 6 Oeste 0 -- -- 80
2017-09-24 09:00:00 11.3 4 Noroeste 10 Noroeste 0 -- -- 91
2017-09-24 08:00:00 10.8 5 Noroeste 10 Norte 0 -- -- 91
2017-09-24 07:00:00 11.3 6 Noroeste 10 Norte 0 -- -- 90
2017-09-24 06:00:00 11.8 5 Noroeste 18 Noroeste 0 -- -- 90
2017-09-24 05:00:00 12.4 6 Noroeste 17 Norte 0 -- -- 88
2017-09-24 04:00:00 12.6 9 Noroeste 16 Noroeste 0 -- -- 89
2017-09-24 03:00:00 13 8 Noroeste 10 Noroeste 0 -- -- 88
2017-09-24 02:00:00 13.7 6 Noroeste 11 Noroeste 0 -- -- 85
2017-09-24 01:00:00 14.1 6 Noroeste 14 Norte 0 -- -- 85
2017-09-24 00:00:00 15.1 7 Noroeste 11 Norte 0 -- -- 83
2017-09-23 23:00:00 15.9 5 Oeste 17 Oeste 0 -- -- 80
2017-09-23 22:00:00 16.8 10 Noroeste 16 Noroeste 0 -- -- 78
2017-09-23 21:00:00 19.5 3 Nordeste 14 Sudeste 0 -- -- 68
2017-09-23 20:00:00 20.5 14 Sudeste 22 Sudeste 0 -- -- 66
2017-09-23 19:00:00 22.3 17 Sudeste 23 Sudeste 0 -- -- 60
2017-09-23 18:00:00 23.6 18 Sudeste 23 Sudeste 0 -- -- 54
2017-09-23 17:00:00 24.5 12 Sudeste 19 Sudeste 0 -- -- 50
2017-09-23 16:00:00 24.5 13 Sudeste 21 Sudeste 0 -- -- 48
2017-09-23 15:00:00 24.2 12 Sudeste 19 Sudeste 0 -- -- 48
2017-09-23 14:00:00 23.1 12 Sudeste 18 Sudeste 0 -- -- 50
2017-09-23 13:00:00 21.8 10 Sudeste 15 Sudeste 0 -- -- 54
2017-09-23 12:00:00 19.2 5 Este 12 Este 0 -- -- 60
2017-09-23 11:00:00 16.1 5 Este 10 Este 0 -- -- 74
2017-09-23 10:00:00 13 0 Calma 8 Noroeste 0 -- -- 84
2017-09-23 09:00:00 10.3 6 Noroeste 10 Noroeste 0 -- -- 95
2017-09-23 08:00:00 9.7 9 Norte 13 Norte 0 -- -- 95
2017-09-23 07:00:00 9.6 9 Noroeste 16 Noroeste 0 -- -- 96
2017-09-23 06:00:00 10.2 5 Noroeste 10 Noroeste 0 -- -- 96
2017-09-23 05:00:00 10.8 3 Norte 11 Norte 0 -- -- 94
2017-09-23 04:00:00 11.5 6 Norte 14 Norte 0 -- -- 91
2017-09-23 03:00:00 12 12 Norte 15 Norte 0 -- -- 91
2017-09-23 02:00:00 12.5 10 Noroeste 13 Noroeste 0 -- -- 90
2017-09-23 01:00:00 12.5 12 Noroeste 17 Noroeste 0 -- -- 90
2017-09-23 00:00:00 13 7 Noroeste 12 Norte 0 -- -- 90
2017-09-22 23:00:00 13.3 6 Norte 10 Norte 0 -- -- 89
2017-09-22 22:00:00 13.9 8 Noroeste 12 Noroeste 0 -- -- 87
2017-09-22 21:00:00 14.9 6 Oeste 19 Norte 0 -- -- 84
2017-09-22 20:00:00 17.2 2 Este 10 Norte 0 -- -- 75
2017-09-22 19:00:00 19.3 3 Norte 8 Noroeste 0 -- -- 64
2017-09-22 18:00:00 19.1 3 Noroeste 14 Sur 0 -- -- 71
2017-09-22 17:00:00 17 8 Sudeste 17 Noroeste 0 -- -- 85
2017-09-22 16:00:00 16.4 8 Sudoeste 14 Oeste 0 -- -- 86
2017-09-22 15:00:00 14.5 9 Noroeste 18 Norte 0.4 -- -- 92
2017-09-22 14:00:00 13.5 5 Norte 31 Sudeste 5.8 -- -- 96
2017-09-22 13:00:00 14.8 11 Oeste 15 Oeste 1.2 -- -- 85
2017-09-22 12:00:00 16 2 Este 6 Este 0 -- -- 73
2017-09-22 11:00:00 15.7 3 Nordeste 8 Oeste 0 -- -- 71
2017-09-22 10:00:00 13.4 2 Oeste 10 Oeste 0 -- -- 79
2017-09-22 09:00:00 12.5 6 Noroeste 11 Oeste 0 -- -- 78
2017-09-22 08:00:00 12.1 4 Oeste 9 Noroeste 0 -- -- 76
2017-09-22 07:00:00 12.3 5 Noroeste 10 Noroeste 0 -- -- 76
2017-09-22 06:00:00 13 3 Noroeste 9 Oeste 0 -- -- 72
2017-09-22 05:00:00 13 7 Oeste 10 Oeste 0 -- -- 72
2017-09-22 04:00:00 13.1 6 Oeste 11 Oeste 0 -- -- 72
2017-09-22 03:00:00 13.3 7 Noroeste 13 Noroeste 0 -- -- 71
2017-09-22 02:00:00 13.8 8 Noroeste 11 Noroeste 0 -- -- 68
2017-09-22 01:00:00 14.5 5 Noroeste 13 Norte 0 -- -- 64
2017-09-22 00:00:00 15.3 6 Noroeste 13 Oeste 0 -- -- 61
2017-09-21 23:00:00 16.2 9 Noroeste 13 Oeste 0 -- -- 60
2017-09-21 22:00:00 18 12 Noroeste 15 Noroeste 0 -- -- 53
2017-09-21 21:00:00 20.4 8 Norte 12 Norte 0 -- -- 46
2017-09-21 20:00:00 22.6 9 Sudeste 15 Sudeste 0 -- -- 43
2017-09-21 19:00:00 24.3 14 Sudeste 24 Sudeste 0 -- -- 38
2017-09-21 18:00:00 24.9 19 Sudeste 30 Sudeste 0 -- -- 39
2017-09-21 17:00:00 25.5 22 Sudeste 30 Sudeste 0 -- -- 39
2017-09-21 16:00:00 26.4 21 Sudeste 27 Sudeste 0 -- -- 34
2017-09-21 15:00:00 26.4 14 Sudeste 21 Sudeste 0 -- -- 29
2017-09-21 14:00:00 25.9 11 Sudeste 18 Sudeste 0 -- -- 28
2017-09-21 13:00:00 23.2 12 Sudeste 17 Sudeste 0 -- -- 35
2017-09-21 12:00:00 20.5 7 Sudeste 11 Sudeste 0 -- -- 43
2017-09-21 11:00:00 16.6 3 Sur 9 Sur 0 -- -- 54
2017-09-21 10:00:00 12.4 2 Sudoeste 6 Noroeste 0 -- -- 65
2017-09-21 09:00:00 8.7 3 Norte 8 Noroeste 0 -- -- 77
2017-09-21 08:00:00 7.7 7 Noroeste 9 Noroeste 0 -- -- 77
2017-09-21 07:00:00 8.4 6 Oeste 10 Norte 0 -- -- 74
2017-09-21 06:00:00 8.7 5 Oeste 12 Noroeste 0 -- -- 73
2017-09-21 05:00:00 9.4 7 Noroeste 13 Norte 0 -- -- 71
2017-09-21 04:00:00 10 5 Noroeste 9 Noroeste 0 -- -- 69
2017-09-21 03:00:00 10.6 6 Noroeste 14 Norte 0 -- -- 67
2017-09-21 02:00:00 11.5 6 Noroeste 15 Norte 0 -- -- 63
2017-09-21 01:00:00 11.8 11 Noroeste 17 Norte 0 -- -- 64
2017-09-21 00:00:00 12.7 7 Noroeste 10 Noroeste 0 -- -- 59
2017-09-20 23:00:00 13.4 8 Noroeste 13 Oeste 0 -- -- 57
2017-09-20 22:00:00 15.1 6 Noroeste 12 Norte 0 -- -- 51
2017-09-20 21:00:00 17.6 7 Norte 11 Sudeste 0 -- -- 46
2017-09-20 20:00:00 19.5 11 Sudeste 19 Sudeste 0 -- -- 44
2017-09-20 19:00:00 21.5 14 Sudeste 21 Sudeste 0 -- -- 37
2017-09-20 18:00:00 22.6 14 Sudeste 20 Sudeste 0 -- -- 35
2017-09-20 17:00:00 23.5 12 Sudeste 23 Sudeste 0 -- -- 32
2017-09-20 16:00:00 23.5 13 Sudeste 24 Sudeste 0 -- -- 32
2017-09-20 15:00:00 22.4 19 Sudeste 28 Este 0 -- -- 31
2017-09-20 14:00:00 22.5 16 Sudeste 23 Sudeste 0 -- -- 30
2017-09-20 13:00:00 20.9 12 Sudeste 17 Sudeste 0 -- -- 30
2017-09-20 12:00:00 18.6 8 Sudeste 12 Sudeste 0 -- -- 31
2017-09-20 11:00:00 15 3 Sudoeste 9 Este 0 -- -- 41
2017-09-20 10:00:00 10.7 3 Sur 8 Sudeste 0 -- -- 54
2017-09-20 09:00:00 7.9 0 Calma 9 Noroeste 0 -- -- 60
2017-09-20 08:00:00 6.6 8 Noroeste 12 Noroeste 0 -- -- 59
2017-09-20 07:00:00 6.9 5 Oeste 13 Noroeste 0 -- -- 59
2017-09-20 06:00:00 7.5 5 Oeste 12 Noroeste 0 -- -- 58
2017-09-20 05:00:00 8.3 6 Oeste 12 Norte 0 -- -- 56
2017-09-20 04:00:00 8.8 8 Noroeste 13 Noroeste 0 -- -- 51
2017-09-20 03:00:00 9.7 8 Norte 9 Norte 0 -- -- 48
2017-09-20 02:00:00 11.1 0 Calma 10 Noroeste 0 -- -- 45
2017-09-20 01:00:00 12.1 7 Noroeste 16 Oeste 0 -- -- 41
2017-09-20 00:00:00 13.5 12 Oeste 24 Oeste 0 -- -- 40